Location: Cazavet
(43.0017°N, 1.0431°E)
Time: 09:53:54
(UTC+00:00)

SJ 16-02 - Pass Details

Date: 18 January 2026
Orbit: 583 x 594 km, 75.0° (Epoch: 10 February)

Event Time Altitude Azimuth Distance (km) Brightness Sun altitude
Rises 06:41:28 0° 205° (SSW) 2,791 4.7 -7.7°
Reaches altitude 10° 06:43:42 10° 209° (SSW) 1,896 3.8 -7.3°
Maximum altitude 06:47:52 62° 290° (WNW) 658 1.2 -6.6°
Drops below altitude 10° 06:52:06 10° 12° (NNE) 1,912 3.8 -5.9°
Sets 06:54:21 0° 16° (NNE) 2,818 4.7 -5.5°
